Location: Epalinges
(46.5518°N, 6.6683°E)
Time: 16:49:25
(UTC+00:00)

USA 307 - Pass Details

Date: 20 June 2021
Orbit: 565 x 576 km, 54.0° (Epoch: 17 July)

Event Time Altitude Azimuth Distance (km) Brightness Sun altitude
Exits shadow 00:37:18 26° 138° (SE) 1,137 4.1 -18.6°
Maximum altitude 00:37:32 26° 133° (SE) 1,133 4.1 -18.6°
Drops below altitude 10° 00:41:04 10° 76° (ENE) 1,867 5.9 -18.4°
Sets 00:43:34 0° 64° (ENE) 2,767 7.0 -18.3°
